agen togel online
judi bola online

Jackpot

Texas Poker Multi Jackpot System

Kini Telah hadir Jackpot SUPER ROYAL FLUSH

Kini Telah hadir Jackpot 2000 (khusus table VIP keatas).

Ikutilah global jackpot yang tersedia di system kami, dengan system jackpot terbaru dan pertama di indonesia, anda dapat membeli jackpot dengan harga 100 rupiah saja dan menangkan hadiahnya hingga puluhan juta rupiah.

Jackpot bukanlah suatu keharusan untuk dibeli, namun kami memberikan suatu fitur tambahan untuk member tercinta dari www.asikpoker.net.

Terdapat tiga pilihan harga jackpot yang bisa anda beli yaitu :100,500,1000 dan 2000(khusus table VIP Keatas) rupiah.

Hadiah dari Multi jackpot system www.asikpoker.net

  1. full house x 10 harga jackpot yang anda beli.
      (contoh:anda membeli 1000 maka:1000 X10 = 10.000)
  2. four of kind x 250 harga jackpot yang anda beli
      (contoh:anda membeli 1000 maka:1000 X250 = 250.000)
  3. Straight flush x 1200
      (contoh:anda membeli 1000 maka:1000 X1200 = 1.200.000)
  4. Royal flush x 10000 harga jackpot yang anda beli
      (contoh:anda membeli 1000 maka:1000 X10000 = 10.000.000)
  5. SUPER ROYAL FLUSH x 30000 harga jackpot yang anda beli
      (contoh:anda membeli 1000 maka:1000 X30000 = 30.000.000)

Kondisi kartu

  1. full house adalah kondisi kartu dimana kartu anda dan kartu tengah dengan total 7 kartu bisa mendapatkan nilai 5 kartu dengan kombinasi 1 tris(three of kind) dan 1 pair, contoh 3 kartu 10 dan 2 kartu 5
  2. Four of kind adalah kondisi kartu dimana kartu anda dan kartu tengah dengan total 7 kartu bisa mendapatkan nilai 5 kartu dengan kombinasi 4 kartu yang sama jumlah dan 1 kartu apapun juga contoh anda mendapatkan 4 buah kartu angka 3 dan 1 kartu apapun.
  3. Staright flush adalah kondisi kartu dimana kartu anda dan kartu tengah dengan total 7 kartu bisa mendapatkan nilai 5 kartu dengan kombinasi seri / staright dengan kembang yang sama contoh : urutan kartu dari angka 5, 6, 7, 8 , 9 10 dengan kembang yg sama misalnya as hati
  4. Royal flush adalah kondisi kartu dimana kartu anda dan kartu tengah dengan total 7 kartu bisa mendapatkan nilai 5 kartu dengan kombinasi seri / staright dengan kembang yang sama tetapi kartu tersebut haruslah dimulai dari 10. contoh 10, Queen, Jack, King dan aces dengan kembang yang sama
  5. Super Royal flush adalah kondisi kartu dimana Kedua kartu anda digabung dengan 3 kartu pertama meja haruslah royal flush. contoh kartu anda 10,Queen kembang sama dan 3 kartu pertama meja adalah Jack, King dan aces dengan kembang yang sama

Demikian adalah penjelasan dari Multi Jackpot www.asikpoker.net terima kasih dan selamat bermain salam hoki dari kami

Texas Poker Jackpot Winner

TOP SUPER ROYAL FLUSH
No.TanggalNamaPriceWin
118/01 11:15VERY90Super Royal flush3,000,000
218/01 10:09B904154ESuper Royal flush15,000,000
317/01 22:46GOLOK_JRZSuper Royal flush30,000,000
417/01 22:36KHRONOSSuper Royal flush3,000,000
517/01 22:20HANDRO65Super Royal flush60,000,000
TOP ROYAL FLUSH
No.TanggalNamaPriceWin
118/01 18:47MASTER0000Royal flush1,000,000
218/01 18:33NINIENN22Royal flush1,000,000
318/01 18:20PKGPRoyal flush1,000,000
418/01 18:03JAYLANA1Royal flush5,000,000
518/01 17:42ALEXA2016Royal flush10,000,000
TOP STRAIGHT FLUSH
No.TanggalNamaPriceWin
118/01 18:55NIKMATI3Straight Flush600,000
218/01 18:53BUMI_777Straight Flush600,000
318/01 18:51UTE_GHATELStraight Flush120,000
418/01 18:50ADEN99Straight Flush120,000
518/01 18:49EWAKO60Straight Flush120,000
LATEST JACKPOT
No.TanggalNamaPriceWin
118/01 18:57ENZE88Full House5,000
218/01 18:57COUNTRY98Full House5,000
318/01 18:57CBEC17B2Four Of A Kind125,000
418/01 18:57C22225B7Full House5,000
518/01 18:57DAENG_SAMFull House5,000
618/01 18:57ACIL170Full House5,000
718/01 18:57GSP1976Full House5,000
818/01 18:57KEYJHON99Full House10,000
918/01 18:57BP2145WPFull House5,000
1018/01 18:57DURZP3E03BFull House1,000
1118/01 18:57BWLR10NXEDFull House1,000
1218/01 18:57SIMADU00Full House10,000
1318/01 18:57BALIBIEJAFull House1,000
1418/01 18:57GOSDOS99Full House1,000
1518/01 18:57R453LFull House10,000
1618/01 18:57MUST1DAPATFull House1,000
1718/01 18:56XOODPL43OIFull House5,000
1818/01 18:56JUST1212Four Of A Kind250,000
1918/01 18:56HEEHFull House10,000
2018/01 18:56SNI37841Four Of A Kind125,000
2118/01 18:56ARYAKEFull House1,000
2218/01 18:56TTAHUUFour Of A Kind25,000
2318/01 18:56FDLLLFull House1,000
2418/01 18:56FLAS86Full House1,000
2518/01 18:56SUBAR0Full House1,000
2618/01 18:56DENNY1979Full House20,000
2718/01 18:56DINOPBFull House1,000
2818/01 18:56CADUKMILAFull House1,000
2918/01 18:56MACHABO1Full House1,000
3018/01 18:56JR270186Four Of A Kind125,000
3118/01 18:56TANYAN66Full House1,000
3218/01 18:56BJM9999Full House1,000
3318/01 18:56R1KY45Full House10,000
3418/01 18:56ADYBL777Full House1,000
3518/01 18:56UTARISFull House1,000
3618/01 18:56TEMPILANGFull House1,000
3718/01 18:56JIDORSFull House5,000
3818/01 18:56DOCD198Full House5,000
3918/01 18:56INARAVIKAFull House20,000
4018/01 18:56M4D4RA14Full House1,000
4118/01 18:56BP2145WPFull House5,000
4218/01 18:56SONY000Full House10,000
4318/01 18:56MBELINKZFull House5,000
4418/01 18:56BGTOY_00Full House1,000
4518/01 18:56DAGABORFull House10,000
4618/01 18:56SANRO99Full House5,000
4718/01 18:56WUAHY747Full House1,000
4818/01 18:56JOJOTTENFour Of A Kind125,000
4918/01 18:56IKANIKANOIFull House5,000
5018/01 18:56SAMSON007Full House5,000

Domino Multi Jackpot System

Ikutilah global jackpot yang tersedia di system kami, dengan system jackpot terbaru dan pertama di indonesia, anda dapat membeli jackpot dengan harga 100 rupiah saja dan menangkan hadiahnya hingga puluhan juta rupiah.

Jackpot bukanlah suatu keharusan untuk dibeli, namun kami memberikan suatu fitur tambahan untuk member tercinta dari www.asikpoker.net.

Terdapat tiga pilihan harga jackpot yang bisa anda beli yaitu :100,500 dan 1000 rupiah.

Hadiah dari Multi jackpot system www.asikpoker.net

  1. Murni Kecil x 50 harga jackpot yang anda beli.
      (contoh:anda membeli 1000 maka:1000 X 50 = 50.000)
  2. Murni Besar x 50 harga jackpot yang anda beli
      (contoh:anda membeli 1000 maka:1000 X 50 = 50.000)
  3. BALAK x 100 harga jackpot yang anda beli
      (contoh:anda membeli 1000 maka:1000 X 100 = 100.000)
  4. ENAM DEWA x 6666 harga jackpot yang anda beli
      (contoh:anda membeli 1000 maka:1000 X 6666 = 6.666.000)

Demikian adalah penjelasan dari Multi Jackpot www.asikpoker.net terima kasih dan selamat bermain salam hoki dari kami

Domino Jackpot Winner

TOP ENAM DEWA
No.TanggalNamaPriceWin
118/01 16:09CHICOC50murni enam6,666,000
218/01 14:47RED_ALBINOmurni enam6,666,000
318/01 13:45GAPLEXXXmurni enam6,666,000
418/01 13:25TIL111murni enam666,600
518/01 13:07KIU2222murni enam6,666,000
TOP BALAK
No.TanggalNamaPriceWin
118/01 18:54Z3NOXSbalak50,000
218/01 18:46BANGBUDbalak100,000
318/01 18:39GHAILANDbalak100,000
418/01 18:33ASKAR2727balak50,000
518/01 18:33SITUPANG9balak100,000
LATEST JACKPOT
No.TanggalNamaPriceWin
118/01 18:57EVRIT01murni kecil25,000
218/01 18:56NNY1526murni besar5,000
318/01 18:55ANSET09murni kecil25,000
418/01 18:54PRASTYO18murni kecil50,000
518/01 18:54CADELEmurni besar5,000
618/01 18:54Z3NOXSbalak50,000
718/01 18:54INKHE08murni kecil50,000
818/01 18:54JIM345murni besar5,000
918/01 18:54TOTOK31murni besar25,000
1018/01 18:53BUAYA38murni besar25,000
1118/01 18:52BRYANMILDmurni besar50,000
1218/01 18:52I3JNGRY2R4murni kecil25,000
1318/01 18:52IFANSRmurni kecil5,000
1418/01 18:52ANSET09murni kecil25,000
1518/01 18:51QS_MKmurni kecil50,000
1618/01 18:50JP_LOMBOK9murni kecil5,000
1718/01 18:50ASRI45121murni kecil50,000
1818/01 18:50JODIAN99murni kecil5,000
1918/01 18:49BMW303murni kecil25,000
2018/01 18:49MRGXPAVAJAmurni besar50,000
2118/01 18:49RAMBO16murni besar25,000
2218/01 18:49DWBTARI10murni kecil5,000
2318/01 18:48TAILUH11murni kecil50,000
2418/01 18:47PUJO234murni kecil25,000
2518/01 18:46IWAKHALUSmurni besar25,000
2618/01 18:46NATHA234murni kecil50,000
2718/01 18:46JSJOSANmurni besar25,000
2818/01 18:46HABZHABZmurni kecil5,000
2918/01 18:46BANGBUDbalak100,000
3018/01 18:45UMAR8585murni kecil50,000
3118/01 18:44BRYANMILDmurni kecil50,000
3218/01 18:43P3V4Q6MLELmurni kecil50,000
3318/01 18:42BEJ0NANmurni besar25,000
3418/01 18:42CUAN1908murni kecil5,000
3518/01 18:42NYANGUUmurni besar25,000
3618/01 18:41BIELLmurni kecil25,000
3718/01 18:41STEV6666murni kecil50,000
3818/01 18:40UPIK232murni besar5,000
3918/01 18:39GHAILANDbalak100,000
4018/01 18:39ANDIBEHmurni kecil50,000
4118/01 18:37CAFEZONE99murni kecil50,000
4218/01 18:35BUL3E123murni kecil50,000
4318/01 18:34MAHRUNDAUDmurni besar50,000
4418/01 18:33ASKAR2727balak50,000
4518/01 18:33SITUPANG9balak100,000
4618/01 18:33KEMAN03murni besar25,000
4718/01 18:33SABA99murni besar50,000
4818/01 18:32DN4DARBAmurni besar25,000
4918/01 18:31PLG0001116balak100,000
5018/01 18:30BUL3E123balak100,000

Ceme Multi Jackpot System

Jackpot dilihat dari gabungan kartu pemain dengan kartu bandar. Bandar harus membeli jackpot sebanyak jumlah player yang sedang duduk. Sebagai contoh bila terdapat 3 pemain duduk bermain, dan bandar memutuskan untuk membeli jackpot Rp 1.000, maka pada periode tersebut bandar akan membeli jackpot sebanyak 3xRp1.000 = Rp3.000.

Jackpot bukanlah suatu keharusan untuk dibeli, namun kami memberikan suatu fitur tambahan untuk member tercinta dari www.asikpoker.net.

Terdapat tiga pilihan harga jackpot yang bisa anda beli yaitu :100,500 dan 1000 rupiah.

Hadiah dari Multi jackpot system www.asikpoker.net

  1. Murni Kecil x 50 harga jackpot yang anda beli.
      (contoh:anda membeli 1000 maka:1000 X 50 = 50.000)
  2. Murni Besar x 50 harga jackpot yang anda beli
      (contoh:anda membeli 1000 maka:1000 X 50 = 50.000)
  3. BALAK x 200 harga jackpot yang anda beli
      (contoh:anda membeli 1000 maka:1000 X 200 = 200.000)
  4. ENAM DEWA x 6666 harga jackpot yang anda beli
      (contoh:anda membeli 1000 maka:1000 X 6666 = 6.666.000)

Demikian adalah penjelasan dari Multi Jackpot www.asikpoker.net terima kasih dan selamat bermain salam hoki dari kami

Ceme Jackpot Winner

TOP ENAM DEWA
No.TanggalNamaPriceWin
118/01 18:24KINGKATROKmurni enam6,666,000
218/01 18:15SKMSUBURmurni enam6,666,000
318/01 18:08KATAK131murni enam6,666,000
418/01 18:08FF5B8B52murni enam666,600
518/01 18:05TUJAH23murni enam666,600
TOP BALAK
No.TanggalNamaPriceWin
118/01 18:57ISWANTO15balak200,000
218/01 18:57LILITOObalak100,000
318/01 18:55ASHARI1512balak200,000
418/01 18:55BAKULKUbalak20,000
518/01 18:54ZEEONKbalak200,000
LATEST JACKPOT
No.TanggalNamaPriceWin
118/01 18:57ISWANTO15balak200,000
218/01 18:57LILITOObalak100,000
318/01 18:57L_MANmurni besar5,000
418/01 18:56SAPUDImurni besar25,000
518/01 18:56S4NYO8888murni kecil25,000
618/01 18:56PAZZmurni besar5,000
718/01 18:56ROZIANOmurni besar50,000
818/01 18:56BUSET1234murni besar50,000
918/01 18:56W72S5XTNMTmurni besar50,000
1018/01 18:56ADLI27murni kecil5,000
1118/01 18:56KKRUDYYmurni kecil25,000
1218/01 18:55AJENK29murni kecil5,000
1318/01 18:55RATU415murni kecil25,000
1418/01 18:55IR080984murni kecil50,000
1518/01 18:55ASHARI1512balak200,000
1618/01 18:55GONYICIL99murni besar50,000
1718/01 18:55FARUK12murni besar5,000
1818/01 18:55BAKULKUbalak20,000
1918/01 18:54ACHO2209murni kecil50,000
2018/01 18:54D_QUADRATmurni kecil5,000
2118/01 18:54LAKSANA36murni kecil50,000
2218/01 18:54YPUIOIIBRLmurni kecil5,000
2318/01 18:54ZEEONKbalak200,000
2418/01 18:54KOBOLDLUXmurni kecil50,000
2518/01 18:54NUNG888murni kecil50,000
2618/01 18:54B4Y0N3Tmurni kecil50,000
2718/01 18:54NE4Z78M1KEbalak200,000
2818/01 18:53HARWOTOmurni kecil50,000
2918/01 18:53NUNNAXmurni kecil50,000
3018/01 18:53UCAL182murni besar5,000
3118/01 18:53BOMBER111murni kecil25,000
3218/01 18:53DOWI888murni kecil25,000
3318/01 18:53ISWANTO15murni besar50,000
3418/01 18:53EM6QOMYJ1Umurni besar50,000
3518/01 18:53GENEP_666murni kecil5,000
3618/01 18:53ZEEONKmurni kecil50,000
3718/01 18:53EBOX99murni besar5,000
3818/01 18:52SPRWMNHDPmurni kecil50,000
3918/01 18:52HARWOTOmurni kecil50,000
4018/01 18:52DAGM700murni kecil5,000
4118/01 18:52MA2NGPENmurni kecil50,000
4218/01 18:52HINATAKEYmurni kecil25,000
4318/01 18:52PELET09murni kecil50,000
4418/01 18:52PELET09murni kecil50,000
4518/01 18:52CUNGUKK90murni kecil50,000
4618/01 18:51JG2Q7LA02Xmurni kecil5,000
4718/01 18:51EMIR25murni kecil50,000
4818/01 18:51WINAERNImurni besar5,000
4918/01 18:51SUEEF09murni besar25,000
5018/01 18:51ANGGAS666balak200,000